Beaufort MCAS, SC

5:44 AM EST on December 15, 2017 (GMT -0500)
Beaufort Marine Corps Air Station

Weather History for KNBC - December, 2013

Change the Weather History Date:

Monday, December 30, 2013

  Actual Average Record
Temperature  
Mean Temperature 53 °F -  
Max Temperature 61 °F 60 °F 81 °F (2015)
Min Temperature 45 °F 42 °F 26 °F (1961)
Degree Days  
Heating Degree Days 12    
Growing Degree Days 3 (Base 50)    
Moisture  
Dew Point 43 °F    
Average Humidity 71    
Maximum Humidity 90    
Minimum Humidity 48    
Precipitation  
Precipitation 0.00 in - - ()
Sea Level Pressure  
Sea Level Pressure 30.11 in    
Wind  
Wind Speed 6 mph (WNW)    
Max Wind Speed 10 mph    
Max Gust Speed -    
Visibility 10 miles    
Events      
Averages and records for this station are not official NWS values.
T = Trace of Precipitation, MM = Missing Value Source: NWS Daily Summary

Daily Weather History Graph

Daily Weather History Graph

Search for Another Location

Airport or City:

Trip Planner

Search our weather history database for the weather conditions in past years. The results will help you decide how hot, cold, wet, or windy it might be!

Date:

Astronomy

Dec. 30, 2013 Rise Set
Actual Time 7:24 AM EST 5:27 PM EST
Civil Twilight 6:57 AM EST 5:54 PM EST
Nautical Twilight 6:26 AM EST 6:24 PM EST
Astronomical Twilight 5:56 AM EST 6:54 PM EST
Moon 5:15 AM EST (12/30) 3:56 PM EST (12/30)
Length of Visible Light 10h 57m
Length of Day
10h 02m
Waning Crescent, 5% of the Moon is Illuminated
Dec 30
Waning Crescent
Jan 1
New
Jan 7
First Quarter
Jan 15
Full
Jan 24
Last Quarter

Hourly Weather History & Observations

Time (EST) Temp. Windchill Dew Point Humidity Pressure Visibility Wind Dir Wind Speed Gust Speed Precip Events Conditions
12:56 AM 52.0 °F - 46.9 °F 83% 30.01 in 10.0 mi WNW 9.2 mph - N/A   Clear
1:56 AM 50.0 °F - 46.0 °F 86% 30.02 in 10.0 mi Calm Calm - N/A   Clear
2:56 AM 48.0 °F - 45.0 °F 89% 30.03 in 10.0 mi West 3.5 mph - N/A   Clear
3:56 AM 48.0 °F - 44.1 °F 86% 30.03 in 10.0 mi Calm Calm - N/A   Clear
4:56 AM 46.9 °F - 43.0 °F 86% 30.03 in 10.0 mi West 4.6 mph - N/A   Clear
5:56 AM 46.0 °F 43.9 °F 42.1 °F 86% 30.05 in 10.0 mi West 4.6 mph - N/A   Clear
6:56 AM 45.0 °F 41.8 °F 42.1 °F 90% 30.08 in 10.0 mi WNW 5.8 mph - N/A   Scattered Clouds
7:56 AM 46.0 °F 42.5 °F 42.1 °F 86% 30.09 in 10.0 mi NW 6.9 mph - N/A   Mostly Cloudy
8:56 AM 48.9 °F - 43.0 °F 80% 30.12 in 10.0 mi NW 5.8 mph - N/A   Mostly Cloudy
9:56 AM 53.1 °F - 43.0 °F 69% 30.14 in 10.0 mi NNW 8.1 mph - N/A   Mostly Cloudy
10:56 AM 55.0 °F - 42.1 °F 62% 30.13 in 10.0 mi NNW 4.6 mph - N/A   Mostly Cloudy
11:56 AM 57.9 °F - 41.0 °F 53% 30.12 in 10.0 mi NW 5.8 mph - N/A   Clear
12:56 PM 61.0 °F - 41.0 °F 48% 30.10 in 10.0 mi WNW 10.4 mph - N/A   Mostly Cloudy
1:56 PM 60.1 °F - 42.1 °F 51% 30.11 in 10.0 mi WNW 8.1 mph - N/A   Mostly Cloudy
2:56 PM 59.0 °F - 42.1 °F 53% 30.11 in 10.0 mi WNW 5.8 mph - N/A   Overcast
3:56 PM 59.0 °F - 42.1 °F 53% 30.12 in 10.0 mi WNW 5.8 mph - N/A   Overcast
4:56 PM 57.0 °F - 43.0 °F 59% 30.13 in 10.0 mi West 5.8 mph - N/A   Clear
5:56 PM 55.9 °F - 42.1 °F 60% 30.14 in 10.0 mi WNW 5.8 mph - N/A   Clear
6:56 PM 53.1 °F - 44.1 °F 71% 30.14 in 10.0 mi West 5.8 mph - N/A   Clear
7:56 PM 54.0 °F - 44.1 °F 69% 30.17 in 10.0 mi West 4.6 mph - N/A   Clear
8:56 PM 54.0 °F - 44.1 °F 69% 30.18 in 10.0 mi West 5.8 mph - N/A   Clear
9:56 PM 54.0 °F - 45.0 °F 72% 30.19 in 10.0 mi West 5.8 mph - N/A   Clear
10:56 PM 53.1 °F - 45.0 °F 74% 30.20 in 10.0 mi West 5.8 mph - N/A   Partly Cloudy
11:56 PM 54.0 °F - 45.0 °F 72% 30.19 in 10.0 mi WNW 5.8 mph - N/A   Clear